Tracking 35331 objects as of 16-Sep-2026
HD Live streaming from Space Station
objects crossing your sky now

THOR ABLESTAR DEB


THOR ABLESTAR DEB is no longer on orbit


NORAD ID: 99
Int'l Code: 1960-003D
Launch date: April 13, 1960
Source: United States (US)
Launch site: AIR FORCE EASTERN TEST RANGE (AFETR)
Decay date: 1979-07-15

Note: This is SATELLITE DEBRIS
Your satellite tracking list
Your tracking list is empty




NASA's NSSDC Master Catalog

Two Line Element Set (TLE):
1 00099U 60003  D 79186.84178960  .01646730 +24659-2 +98060-3 0  9992
2 00099 051.2611 217.5480 0004728 097.4296 263.3330 16.18346998058087
Source of the keplerian elements: AFSPC